Weather in Aalst

Belgium     50°56′17″N   4°01′34″E
temp.,
°C
wind,
m/s
gust,
m/s
humid.,
%
clouds,
%
prec.,
mm/h
press.,
hPa
HPBL,
m
23 april, fri
fri2323:00+5nne487242 0.0 1028177
02:00+3ene36865 0.0 102999
05:00+1ene35925 0.0 102973
08:00+3ene36845 0.0 1030175
11:00+9ene45515 0.0 1030753
14:00+13ene44365 0.0 10291205
17:00+15ne45375 0.0 10271461
20:00+11nne35625 0.0 1027108
24 april, sat
sat2423:00+7ene34690 0.0 102862
02:00+4ne487434 0.0 1028160
05:00+3ene388729 0.0 1027151
08:00+5ene497998 0.0 1028269
11:00+10ne5754100 0.0 1027730
14:00+13ne564494 0.0 10271209
17:00+14ne664686 0.0 10251470
20:00+11ne586254 0.0 1026311
25 april, sun
sun2523:00+7ne612688 0.0 1027414
02:00+5ne510776 0.0 1028314
05:00+2ne48840 0.0 1028231
08:00+3ne510775 0.0 1028424
11:00+9ne67500 0.0 1027862
14:00+13ene56380 0.0 10261197
17:00+14ne67382 0.0 10241430
20:00+11ne48541 0.0 1023232
26 april, mon
mon2623:00+6ne5107126 0.0 1024300
02:00+5ne510764 0.0 1023284
05:00+2ne49850 0.0 1022199
08:00+3ne48752 0.0 1021264
11:00+9ene56445 0.0 1019719
14:00+13ene453228 0.0 10161150
17:00+14ne5533100 0.0 10131402
20:00+11ne5950100 0.0 1011291
27 april, tue
tue2723:00+8ene4953100 0.0 1011272
02:00+7ne51067100 0.0 1010347
05:00+6ne4973100 0.0 1008362
08:00+6ne51076100 0.0 1008432
11:00+11ne685897 0.0 1007884
14:00+14nne664814 0.0 10051572
17:00+14n664799 0.0 10051607
20:00+10nnw7117262 0.1 1005412